Printer-friendly version

IAU Minor Planet Center

Minor Planet Center

MPEC 2004-D45 : 2004 DO29

The following Minor Planet Electronic Circular may be linked-to from your own Web pages, but must not otherwise be redistributed electronically.


Read MPEC 2004-D44 Read MPEC 2004-D46


M.P.E.C. 2004-D45                                Issued 2004 Feb. 28, 00:09 UT

     The Minor Planet Electronic Circulars contain information on unusual
         minor planets and routine data on comets.  They are published
   on behalf of Commission 20 of the International Astronomical Union by the
          Minor Planet Center, Smithsonian Astrophysical Observatory,
                          Cambridge, MA 02138, U.S.A.

         Supported in part by the Steven and Michele Kirsch Foundation
             Prepared using the Tamkin Foundation Computer Network

                              MPC@CFA.HARVARD.EDU
          URL http://cfa-www.harvard.edu/iau/mpc.html  ISSN 1523-6714

                                   2004 DO29

Observations:
     K04D29O  C2004 02 11.38865 10 49 42.27 +10 18 32.9          19.1 R ED045699
     K04D29O  C2004 02 11.40892 10 49 41.89 +10 18 38.0                 ED045699
     K04D29O  C2004 02 11.42925 10 49 41.21 +10 18 44.9                 ED045699
     K04D29O  C2004 02 11.44959 10 49 40.89 +10 18 52.4                 ED045699
     K04D29O* C2004 02 17.21711 10 47 22.60 +10 49 35.4          19.8 V ED045691
     K04D29O  C2004 02 17.24982 10 47 21.73 +10 49 46.2          20.0 V ED045691
     K04D29O  C2004 02 17.27872 10 47 20.87 +10 49 56.9          19.4   ED045704
     K04D29O  C2004 02 17.27935 10 47 20.94 +10 49 55.7          19.7 V ED045691
     K04D29O  C2004 02 17.29051 10 47 20.70 +10 50 00.0          19.7   ED045704
     K04D29O  C2004 02 17.30242 10 47 20.39 +10 50 04.5          19.7   ED045704
     K04D29O  C2004 02 17.32630 10 47 19.84 +10 50 12.4          20.5   ED045704
     K04D29O  C2004 02 23.27922 10 44 44.73 +11 22 41.6          19.0   ED045704
     K04D29O  C2004 02 23.29309 10 44 44.32 +11 22 46.1          19.4   ED045704
     K04D29O  C2004 02 23.30462 10 44 43.99 +11 22 51.0          19.5   ED045704
     K04D29O  C2004 02 23.31851 10 44 43.60 +11 22 55.1          20.0   ED045704
     K04D29O  C2004 02 23.33275 10 44 43.20 +11 22 59.7          19.4   ED045704
     K04D29O  C2004 02 25.30344 10 43 50.14 +11 33 47.3          19.1   ED045704
     K04D29O  C2004 02 25.31565 10 43 49.95 +11 33 54.8          18.4   ED045704
     K04D29O  C2004 02 25.32780 10 43 49.46 +11 33 57.0          19.4   ED045704
     K04D29O  C2004 02 25.33985 10 43 49.13 +11 34 00.6          19.6   ED045704
     K04D29O  C2004 02 25.35194 10 43 48.79 +11 34 04.4          19.6   ED045704
     K04D29O  C2004 02 26.27978 10 43 23.61 +11 39 09.7          19.2   ED045704
     K04D29O  C2004 02 26.29173 10 43 23.27 +11 39 13.5          19.4   ED045704
     K04D29O  C2004 02 26.31590 10 43 22.79 +11 39 21.6          19.7   ED045704
     K04D29O  C2004 02 26.32792 10 43 22.38 +11 39 25.2          19.8   ED045704

Observer details:
691 Steward Observatory, Kitt Peak.  Observer A. E. Gleason.  0.9-m f/3
    reflector + CCD.
699 Lowell Observatory-LONEOS.  Observer B. A. Skiff.  0.59-m LONEOS Schmidt
    + CCD.
704 Lincoln Laboratory ETS, New Mexico.  Observers M. Blythe, F. Shelly,
    M. Bezpalko, R. Huber, L. Manguso, D. Torres, R. Kracke, M. McCleary,
    H. Stange, A. Milner.  Measurers J. Stuart, R. Sayer, J. Evans, J. Kommers.
    1.0-m f/2.15 reflector + CCD.

Orbital elements:
2004 DO29
Epoch 2004 Feb. 5.0 TT = JDT 2453040.5                  MPC
M 348.66667              (2000.0)            P               Q
n   0.04829406     Peri.   40.23122     -0.97981924     +0.15038715
a   7.4680448      Node   147.68999     -0.17429485     -0.96529481
e   0.4537078      Incl.   14.26158     +0.09785478     -0.21351731
P  20.4            H   13.2           G   0.15
From 24 observations 2004 Feb. 11-26.

Ephemeris:
2004 DO29                a,e,i = 7.47, 0.45, 14                  q = 4.0797
Date    TT    R. A. (2000) Decl.     Delta      r     Elong.  Phase     V
2004 02 25    10 43.97   +11 32.2    3.271    4.259   175.9     0.9    19.1
2004 03 06    10 39.44   +12 26.0    3.262    4.243   170.3     2.3    19.2
2004 03 16    10 35.15   +13 15.9    3.282    4.228   159.4     4.8    19.3
2004 03 26    10 31.53   +13 58.7    3.331    4.213   148.5     7.1    19.5
2004 04 05    10 28.96   +14 32.3    3.404    4.200   137.9     9.2    19.6
2004 04 15    10 27.68   +14 55.7    3.497    4.187   127.7    10.9    19.7
2004 04 25    10 27.83   +15 08.4    3.608    4.174   117.9    12.3    19.8
2004 05 05    10 29.45   +15 10.6    3.730    4.163   108.6    13.3    19.9
2004 05 15    10 32.49   +15 03.0    3.860    4.152    99.7    13.9    20.0
2004 05 25    10 36.86   +14 46.4    3.995    4.142    91.2    14.2    20.1
2004 06 04    10 42.43   +14 21.5    4.130    4.132    83.1    14.1    20.2
2004 06 14    10 49.08   +13 49.4    4.263    4.124    75.2    13.8    20.2
2004 06 24    10 56.67   +13 10.9    4.392    4.116    67.7    13.2    20.3
2004 07 04    11 05.06   +12 26.7    4.514    4.108    60.4    12.4    20.3
2004 07 14    11 14.15   +11 37.8    4.627    4.102    53.3    11.5    20.3
2004 07 24    11 23.83   +10 44.7    4.730    4.097    46.4    10.3    20.3
2004 08 03    11 34.00   +09 48.4    4.822    4.092    39.6     9.1    20.3
2004 08 13    11 44.59   +08 49.4    4.900    4.088    33.0     7.8    20.3

Brian G. Marsden             (C) Copyright 2004 MPC           M.P.E.C. 2004-D45

Read MPEC 2004-D44 Read MPEC 2004-D46


Our Web policy. Index to the CBAT/MPC/ICQ pages.


Valid HTML 4.01!